Location: Sungai Liu
(2.3667°N, 113.8667°E)
Time: 13:45:22
(UTC+00:00)

Meteor 1-31 Rocket - Pass Details

Date: 20 May 2022
Orbit: 517 x 542 km, 97.7° (Epoch: 06 July)

Event Time Altitude Azimuth Distance (km) Brightness Sun altitude
Rises 21:26:16 0° 11° (N) 2,620 6.8 -12.0°
Reaches altitude 10° 21:28:21 10° 11° (NNE) 1,736 5.8 -11.5°
Maximum altitude 21:32:06 90° 116° (ESE) 521 2.7 -10.7°
Drops below altitude 10° 21:35:52 10° 191° (SSW) 1,749 5.1 -9.8°
Sets 21:37:58 0° 191° (S) 2,641 6.0 -9.3°
